Starlink 5159

operational
NORAD ID: 53974 Int'l Des: 2022-125 Owner: SPXS Country: US Constellation: starlink
LEOCIRCULAR

About Starlink 5159

Description loading...

Live Position

Loading 3D Globe...

Upcoming Passes

Altitude History

Altitude vs Time

uPlot chart will show altitude changes over time

Two-Line Element Set

1 53974U 22125L 25257.45857966 -.00004289 00000-0 -25181-3 0 9996
2 53974 53.2163 274.8558 0001307 93.7405 266.3736 15.08806506163000
Epoch: Sep 14, 2025 • Age: 25 hours

Current Status

Altitude 555.7 km
Velocity 7.58 km/s
Sub-Earth Point -44.63°S, 36.02°W
Launch Date Oct 5, 2022
Age 2.9 years
Type internet

Technical Details

Classification Payload
Mass 305.00 kg
Dry Mass 290.00 kg
Total Mass 305.00 kg
Length 0.20 m
Diameter 2.80 m
Span 9.00 m
Shape Box + pan
Manufacturer SPXS
Bus Type Starlink
Phase Status In Orbit
Owner/State SPXS/US

Large Constellations

Loading constellations...